Location: Helion Bumpstead
(52.0500°N, 0.4000°E)
Time: 22:56:29
(UTC+00:00)

Cosmos 1725 Rocket - Pass Details

Date: 17 February 2026
Orbit: 962 x 989 km, 82.9° (Epoch: 11 March)

Event Time Altitude Azimuth Distance (km) Brightness Sun altitude
Rises 19:18:30 0° 336° (NNW) 3,683 7.4 -19.4°
Reaches altitude 10° 19:22:54 10° 307° (NW) 2,736 7.2 -20.1°
Maximum altitude 19:24:59 12° 288° (WNW) 2,604 7.3 -20.4°
Drops below altitude 10° 19:27:04 10° 268° (W) 2,737 7.5 -20.7°
Sets 19:31:30 0° 239° (WSW) 3,684 7.8 -21.4°
